Orbital Elements at Epoch 2459200.5 (2020-Dec-17.0) TDB
Reference: JPL 20 (heliocentric ecliptic J2000)
Element | Value | Uncertainty (1-sigma) | Units |
e | .1951992125296914 | 5.6752e-08 | |
a | 2.364628836657749 | 9.9065e-09 | au |
q | 1.903055149817156 | 1.3435e-07 | au |
i | 2.448214558183918 | 4.5146e-06 | deg |
node | 65.82868058023872 | 0.00012416 | deg |
peri | 302.7540623291457 | 0.00012443 | deg |
M | 259.7773647118097 | 1.0799e-05 | deg |
tp | 2459570.248325962839 (2021-Dec-21.74832596) | 4.1386e-05 | TDB |
period | 1328.137071669147 3.64 | 8.3463e-06 2.285e-08 | d yr |
n | .2710563598285584 | 1.7034e-09 | deg/d |
Q | 2.826202523498342 | 1.184e-08 | au |
|
| | Orbit Determination Parameters
Additional Information
|